This is the latest recevied weather packets stored in our database for station/object G4KVI. If no packets are shown the sender has not sent any weather packets the latest 10 day(s).
| Time | Temp. | Humidity | Pressure | Rain* | Wind** | Luminosity | Snow |
|---|---|---|---|---|---|---|---|
| 1787648404 | 18.89° C | 66% | 1014.3 hPa | 0 mm | - | 230 W/m² | - |
| 1787648104 | 18.89° C | 67% | 1014.4 hPa | 0 mm | - | 211 W/m² | - |
| 1787647804 | 18.89° C | 68% | 1014.6 hPa | 0 mm | - | 194 W/m² | - |
| 1787647504 | 18.89° C | 69% | 1014.7 hPa | 0 mm | - | 182 W/m² | - |
| 1787647204 | 18.33° C | 69% | 1014.4 hPa | 0 mm | - | 175 W/m² | - |
| 1787646904 | 18.33° C | 71% | 1014.4 hPa | 0 mm | - | 155 W/m² | - |
| 1787646604 | 17.78° C | 73% | 1014.4 hPa | 0 mm | - | 158 W/m² | - |
| 1787646304 | 17.22° C | 75% | 1014.3 hPa | 0 mm | - | 152 W/m² | - |
| 1787646004 | 17.22° C | 76% | 1014.4 hPa | 0 mm | - | 148 W/m² | - |
| 1787645704 | 16.67° C | 76% | 1014.4 hPa | 0 mm | - | 147 W/m² | - |
| 1787645404 | 16.67° C | 77% | 1014.6 hPa | 0 mm | - | 119 W/m² | - |
| 1787645104 | 16.67° C | 77% | 1014.5 hPa | 0 mm | - | 104 W/m² | - |
| 1787644804 | 16.67° C | 77% | 1014.6 hPa | 0 mm | - | 116 W/m² | - |
| 1787644504 | 16.11° C | 78% | 1014.7 hPa | 0 mm | - | 125 W/m² | - |
| 1787644204 | 16.11° C | 79% | 1014.7 hPa | 0 mm | - | 129 W/m² | - |
| 1787643904 | 15.56° C | 79% | 1014.7 hPa | 0 mm | - | 134 W/m² | - |
| 1787643604 | 15.56° C | 79% | 1014.7 hPa | 0 mm | - | 125 W/m² | - |
| 1787643304 | 15.56° C | 80% | 1014.7 hPa | 0 mm | - | 108 W/m² | - |
| 1787643004 | 15.56° C | 80% | 1014.9 hPa | 0 mm | - | 94 W/m² | - |
| 1787642704 | 15.56° C | 81% | 1015 hPa | 0 mm | - | 81 W/m² | - |
| 1787642404 | 15° C | 81% | 1015 hPa | 0 mm | - | 72 W/m² | - |
| 1787642104 | 15° C | 81% | 1014.8 hPa | 0 mm | - | 69 W/m² | - |
| 1787641804 | 15° C | 81% | 1014.8 hPa | 0 mm | - | 67 W/m² | - |
| 1787641504 | 15° C | 82% | 1014.9 hPa | 0 mm | - | 62 W/m² | - |
| 1787641204 | 15° C | 82% | 1015 hPa | 0 mm | - | 56 W/m² | - |
* Rain latest hour (hover to see other rain measurements)
** Current wind speed in m/s (hover to see current wind gust speed)